Change the Weather History Date:

Saturday, September 21, 2013

  Actual Average Record
Temperature  
Mean Temperature 64 °F 65 °F  
Max Temperature 68 °F 76 °F 91 °F (1963)
Min Temperature 59 °F 54 °F 38 °F (1956)
Degree Days  
Heating Degree Days 1 3  
Month to date heating degree days 34 20  
Since 1 July heating degree days 39 23  
Cooling Degree Days 0 3  
Month to date cooling degree days 106 96  
Year to date cooling degree days 1108 1006  
Growing Degree Days 16 (Base 50)    
Moisture  
Dew Point 64 °F    
Average Humidity 97    
Maximum Humidity 100    
Minimum Humidity 93    
Precipitation  
Precipitation 0.58 in 0.17 in 0.58 in (2013)
Month to date precipitation 0.65 2.86  
Year to date precipitation 34.17 31.00  
Sea Level Pressure  
Sea Level Pressure 29.80 in    
Wind  
Wind Speed 6 mph (South)    
Max Wind Speed 12 mph    
Max Gust Speed 15 mph    
Visibility 4 miles    
Events Rain    
T = Trace of Precipitation, MM = Missing Value Source: NWS Daily Summary

Daily Weather History Graph

Daily Weather History Graph

Search for Another Location

Airport or City:

Trip Planner

Search our weather history database for the weather conditions in past years. The results will help you decide how hot, cold, wet, or windy it might be!

Date:

Astronomy

Sep. 21, 2013 Rise Set
Actual Time 7:00 AM EDT 7:12 PM EDT
Civil Twilight 6:34 AM EDT 7:38 PM EDT
Nautical Twilight 6:03 AM EDT 8:09 PM EDT
Astronomical Twilight 5:32 AM EDT 8:40 PM EDT
Moon 8:24 PM EDT (9/21) 9:14 AM EDT (9/21)
Length of Visible Light 13h 03m
Length of Day
12h 11m
Waning Gibbous, 94% of the Moon is Illuminated
Sep 21
Waning Gibbous
Sep 26
Last Quarter
Oct 4
New
Oct 11
First Quarter
Oct 18
Full

Hourly Weather History & Observations

Time (EDT) Temp. Dew Point Humidity Pressure Visibility Wind Dir Wind Speed Gust Speed Precip Events Conditions
12:53 AM 66.9 °F 64.0 °F 90% 29.95 in 10.0 mi South 5.8 mph - N/A   Overcast
1:16 AM 66.2 °F 64.4 °F 94% 29.95 in 9.0 mi South 4.6 mph - N/A   Overcast
1:29 AM 66.2 °F 64.4 °F 94% 29.95 in 9.0 mi South 4.6 mph - N/A   Overcast
1:53 AM 66.9 °F 64.9 °F 93% 29.94 in 8.0 mi South 4.6 mph - N/A   Overcast
2:53 AM 66.9 °F 64.0 °F 90% 29.93 in 8.0 mi South 8.1 mph - N/A   Overcast
3:20 AM 64.4 °F 64.4 °F 100% 29.94 in 6.0 mi South 6.9 mph - N/A   Mostly Cloudy
3:29 AM 64.4 °F 64.4 °F 100% 29.94 in 5.0 mi South 6.9 mph - N/A   Mostly Cloudy
3:53 AM 64.9 °F 64.0 °F 97% 29.92 in 3.0 mi South 6.9 mph - N/A   Overcast
4:17 AM 64.4 °F 64.4 °F 100% 29.93 in 2.5 mi SSE 6.9 mph - N/A   Overcast
4:53 AM 64.9 °F 64.0 °F 97% 29.91 in 2.5 mi South 5.8 mph - N/A   Overcast
5:29 AM 64.4 °F 64.4 °F 100% 29.92 in 1.2 mi South 6.9 mph - N/A   Overcast
5:53 AM 64.0 °F 64.0 °F 100% 29.89 in 1.8 mi South 6.9 mph - N/A   Overcast
6:09 AM 64.4 °F 62.6 °F 94% 29.91 in 2.5 mi South 8.1 mph - N/A   Overcast
6:24 AM 64.4 °F 62.6 °F 94% 29.90 in 1.0 mi South 10.4 mph - N/A   Overcast
6:53 AM 64.0 °F 63.0 °F 96% 29.88 in 1.0 mi South 8.1 mph - N/A   Overcast
7:53 AM 64.0 °F 63.0 °F 96% 29.88 in 1.5 mi South 9.2 mph - N/A   Overcast
8:53 AM 64.0 °F 63.0 °F 96% 29.87 in 1.5 mi SSW 8.1 mph - N/A   Overcast
9:53 AM 64.0 °F 63.0 °F 96% 29.86 in 1.5 mi South 8.1 mph - N/A   Overcast
10:53 AM 64.0 °F 63.0 °F 96% 29.85 in 1.5 mi South 5.8 mph - 0.01 in   Overcast
11:53 AM 64.9 °F 64.0 °F 97% 29.83 in 1.2 mi South 8.1 mph - 0.00 in   Overcast
12:48 PM 64.4 °F 64.4 °F 100% 29.82 in 2.0 mi South 5.8 mph - N/A   Overcast
12:53 PM 64.9 °F 64.0 °F 97% 29.81 in 1.8 mi South 5.8 mph - N/A   Overcast
1:24 PM 66.2 °F 64.4 °F 94% 29.81 in 2.0 mi SSW 6.9 mph - N/A   Overcast
1:53 PM 66.0 °F 64.9 °F 96% 29.78 in 2.5 mi South 10.4 mph - N/A   Overcast
2:30 PM 66.2 °F 64.4 °F 94% 29.77 in 3.0 mi South 9.2 mph - 0.01 in Rain Light Rain
2:37 PM 66.2 °F 64.4 °F 94% 29.77 in 2.5 mi South 9.2 mph - 0.01 in Rain Light Rain
2:53 PM 66.9 °F 66.0 °F 97% 29.75 in 2.5 mi South 6.9 mph - 0.02 in Rain Light Rain
3:04 PM 66.2 °F 64.4 °F 94% 29.77 in 2.5 mi South 8.1 mph - 0.01 in Rain Light Rain
3:14 PM 66.2 °F 66.2 °F 100% 29.76 in 3.0 mi South 8.1 mph - 0.02 in Rain Light Rain
3:53 PM 66.9 °F 66.0 °F 97% 29.73 in 2.5 mi South 9.2 mph - 0.04 in Rain Light Rain
4:16 PM 66.2 °F 66.2 °F 100% 29.74 in 3.0 mi South 9.2 mph - 0.00 in Rain Light Rain
4:53 PM 66.9 °F 66.0 °F 97% 29.70 in 4.0 mi South 9.2 mph - 0.01 in Rain Light Rain
5:53 PM 68.0 °F 66.0 °F 93% 29.70 in 3.0 mi South 9.2 mph - 0.01 in Rain Light Rain
6:01 PM 68.0 °F 66.2 °F 94% 29.71 in 2.5 mi South 8.1 mph - 0.00 in Rain Light Rain
6:19 PM 68.0 °F 66.2 °F 94% 29.70 in 1.8 mi South 5.8 mph - 0.04 in Rain Rain
6:34 PM 68.0 °F 66.2 °F 94% 29.70 in 1.2 mi SSW 8.1 mph - 0.10 in Rain Heavy Rain
6:37 PM 68.0 °F 66.2 °F 94% 29.71 in 0.8 mi SW 3.5 mph - 0.16 in Rain Heavy Rain
6:53 PM 68.0 °F 66.0 °F 93% 29.69 in 1.0 mi SSW 8.1 mph - 0.38 in Rain Heavy Rain
6:59 PM 66.2 °F 66.2 °F 100% 29.70 in 2.0 mi SSW 8.1 mph - 0.01 in Rain Rain
7:06 PM 66.2 °F 66.2 °F 100% 29.71 in 3.0 mi Calm Calm - 0.02 in Rain Rain
7:14 PM 66.2 °F 66.2 °F 100% 29.71 in 2.5 mi NW 4.6 mph - 0.04 in Rain Rain
7:23 PM 66.2 °F 64.4 °F 94% 29.72 in 3.0 mi Variable 4.6 mph - 0.05 in Rain Light Rain
7:32 PM 66.2 °F 62.6 °F 88% 29.72 in 7.0 mi Variable 3.5 mph - 0.06 in Rain Light Rain
7:41 PM 64.4 °F 62.6 °F 94% 29.73 in 6.0 mi Calm Calm - 0.07 in Rain Light Rain
7:48 PM 64.4 °F 62.6 °F 94% 29.73 in 6.0 mi Calm Calm - 0.07 in Rain Light Rain
7:53 PM 64.9 °F 62.1 °F 90% 29.72 in 7.0 mi Calm Calm - 0.07 in Rain Light Rain
8:17 PM 64.4 °F 62.6 °F 94% 29.73 in 8.0 mi Calm Calm - 0.02 in Rain Light Rain
8:53 PM 64.0 °F 62.1 °F 93% 29.73 in 10.0 mi Calm Calm - 0.04 in Rain Light Rain
9:53 PM 63.0 °F 62.1 °F 97% 29.74 in 10.0 mi Calm Calm - 0.00 in   Overcast
10:53 PM 63.0 °F 61.0 °F 93% 29.75 in 10.0 mi Calm Calm - N/A   Scattered Clouds
11:53 PM 61.0 °F 61.0 °F 100% 29.74 in 9.0 mi Calm Calm - N/A   Scattered Clouds